| time (UTC) | temp F | wind direction | speed MPH | gust MPH | rain 1hr in | rain 24hr in | rain mn in | humidity % | barometer mb |
| 20260509152535 | 69 | 132 | 8.0 | 10.0 | 0.00 | 0.00 | 0.00 | 44 | 1017.9 |
| 20260509152037 | 70 | 135 | 7.0 | 13.0 | 0.00 | 0.00 | 0.00 | 45 | 1018.0 |
| 20260509151536 | 70 | 112 | 9.0 | 13.0 | 0.00 | 0.00 | 0.00 | 44 | 1018.0 |
| 20260509151035 | 70 | 135 | 7.0 | 9.0 | 0.00 | 0.00 | 0.00 | 45 | 1018.0 |
| 20260509150537 | 70 | 129 | 8.0 | 13.0 | 0.00 | 0.00 | 0.00 | 44 | 1018.1 |
| 20260509150036 | 70 | 135 | 5.0 | 6.0 | 0.00 | 0.00 | 0.00 | 45 | 1018.1 |
| 20260509145536 | 70 | 131 | 5.0 | 6.0 | 0.00 | 0.00 | 0.00 | 45 | 1018.1 |
| 20260509145037 | 70 | 137 | 3.0 | 6.0 | 0.00 | 0.00 | 0.00 | 47 | 1018.2 |
| 20260509144536 | 69 | 123 | 5.0 | 8.0 | 0.00 | 0.00 | 0.00 | 47 | 1018.2 |
| 20260509144036 | 69 | 135 | 8.0 | 10.0 | 0.00 | 0.00 | 0.00 | 46 | 1018.3 |
| 20260509143537 | 69 | 129 | 8.0 | 10.0 | 0.00 | 0.00 | 0.00 | 46 | 1018.2 |
| 20260509143036 | 69 | 135 | 7.0 | 10.0 | 0.00 | 0.00 | 0.00 | 46 | 1018.2 |
| 20260509142536 | 69 | 114 | 7.0 | 8.0 | 0.00 | 0.00 | 0.00 | 48 | 1018.3 |
| 20260509142037 | 69 | 135 | 8.0 | 13.0 | 0.00 | 0.00 | 0.00 | 48 | 1018.1 |
| 20260509141537 | 70 | 120 | 7.0 | 9.0 | 0.00 | 0.00 | 0.00 | 47 | 1018.1 |
| 20260509141036 | 70 | 118 | 7.0 | 15.0 | 0.00 | 0.00 | 0.00 | 49 | 1018.1 |
| 20260509140537 | 71 | 145 | 10.0 | 13.0 | 0.00 | 0.00 | 0.00 | 47 | 1018.0 |
| 20260509140036 | 70 | 135 | 5.0 | 8.0 | 0.00 | 0.00 | 0.00 | 50 | 1018.1 |
| 20260509135537 | 69 | 119 | 9.0 | 15.0 | 0.00 | 0.00 | 0.00 | 48 | 1018.1 |
| 20260509135036 | 69 | 125 | 9.0 | 13.0 | 0.00 | 0.00 | 0.00 | 49 | 1018.2 |
| 20260509134537 | 69 | 149 | 7.0 | 10.0 | 0.00 | 0.00 | 0.00 | 48 | 1018.3 |
| 20260509134036 | 70 | 128 | 8.0 | 12.0 | 0.00 | 0.00 | 0.00 | 48 | 1018.3 |
| 20260509133535 | 69 | 120 | 9.0 | 13.0 | 0.00 | 0.00 | 0.00 | 49 | 1018.3 |
| 20260509133037 | 68 | 115 | 10.0 | 13.0 | 0.00 | 0.00 | 0.00 | 49 | 1018.4 |
| 20260509132536 | 68 | 135 | 8.0 | 12.0 | 0.00 | 0.00 | 0.00 | 47 | 1018.5 |
| 20260509132037 | 68 | 120 | 7.0 | 10.0 | 0.00 | 0.00 | 0.00 | 49 | 1018.6 |
| 20260509131536 | 68 | 118 | 8.0 | 13.0 | 0.00 | 0.00 | 0.00 | 49 | 1018.5 |
| 20260509131036 | 69 | 123 | 9.0 | 15.0 | 0.00 | 0.00 | 0.00 | 47 | 1018.5 |
| 20260509130537 | 70 | 135 | 13.0 | 17.0 | 0.00 | 0.00 | 0.00 | 49 | 1018.5 |
| 20260509130036 | 71 | 135 | 7.0 | 8.0 | 0.00 | 0.00 | 0.00 | 48 | 1018.5 |
| 20260509125537 | 70 | 135 | 10.0 | 16.0 | 0.00 | 0.00 | 0.00 | 49 | 1018.5 |
| 20260509125037 | 70 | 113 | 13.0 | 20.0 | 0.00 | 0.00 | 0.00 | 50 | 1018.4 |
| 20260509124536 | 70 | 129 | 10.0 | 16.0 | 0.00 | 0.00 | 0.00 | 50 | 1018.4 |
| 20260509124036 | 69 | 135 | 8.0 | 12.0 | 0.00 | 0.00 | 0.00 | 51 | 1018.5 |
| 20260509123536 | 68 | 135 | 7.0 | 14.0 | 0.00 | 0.00 | 0.00 | 51 | 1018.6 |
| 20260509123037 | 68 | 135 | 12.0 | 15.0 | 0.00 | 0.00 | 0.00 | 52 | 1018.8 |
| 20260509122536 | 68 | 135 | 12.0 | 15.0 | 0.00 | 0.00 | 0.00 | 52 | 1018.8 |
| 20260509122036 | 68 | 119 | 9.0 | 13.0 | 0.00 | 0.00 | 0.00 | 52 | 1018.8 |
| 20260509121535 | 68 | 149 | 12.0 | 16.0 | 0.00 | 0.00 | 0.00 | 51 | 1018.9 |
| 20260509121037 | 69 | 114 | 13.0 | 15.0 | 0.00 | 0.00 | 0.00 | 51 | 1018.8 |
| 20260509120536 | 69 | 132 | 7.0 | 13.0 | 0.00 | 0.00 | 0.00 | 51 | 1018.7 |
| 20260509120037 | 69 | 135 | 6.0 | 9.0 | 0.00 | 0.00 | 0.00 | 51 | 1018.7 |
| 20260509115537 | 69 | 131 | 8.0 | 12.0 | 0.00 | 0.00 | 0.00 | 51 | 1018.7 |
| 20260509115036 | 68 | 124 | 9.0 | 12.0 | 0.00 | 0.00 | 0.00 | 50 | 1018.7 |
| 20260509114535 | 69 | 117 | 9.0 | 15.0 | 0.00 | 0.00 | 0.00 | 51 | 1018.8 |
| 20260509114037 | 69 | 121 | 6.0 | 10.0 | 0.00 | 0.00 | 0.00 | 52 | 1018.8 |
| 20260509113536 | 68 | 124 | 8.0 | 12.0 | 0.00 | 0.00 | 0.00 | 51 | 1018.8 |
| 20260509113036 | 69 | 115 | 6.0 | 10.0 | 0.00 | 0.00 | 0.00 | 51 | 1018.8 |
| 20260509112537 | 69 | 135 | 10.0 | 13.0 | 0.00 | 0.00 | 0.00 | 50 | 1018.9 |
| 20260509112037 | 69 | 135 | 9.0 | 13.0 | 0.00 | 0.00 | 0.00 | 49 | 1018.9 |
| 20260509111536 | 71 | 130 | 12.0 | 15.0 | 0.00 | 0.00 | 0.00 | 46 | 1018.9 |
| 20260509111035 | 72 | 135 | 7.0 | 10.0 | 0.00 | 0.00 | 0.00 | 50 | 1019.0 |
| 20260509110537 | 71 | 116 | 7.0 | 10.0 | 0.00 | 0.00 | 0.00 | 48 | 1019.0 |
| 20260509110036 | 71 | 135 | 9.0 | 12.0 | 0.00 | 0.00 | 0.00 | 50 | 1019.0 |
| 20260509105536 | 70 | 128 | 9.0 | 13.0 | 0.00 | 0.00 | 0.00 | 51 | 1019.0 |
| 20260509105037 | 70 | 115 | 10.0 | 13.0 | 0.00 | 0.00 | 0.00 | 51 | 1019.0 |
| 20260509104536 | 70 | 147 | 8.0 | 15.0 | 0.00 | 0.00 | 0.00 | 51 | 1019.1 |
| 20260509104035 | 70 | 135 | 9.0 | 13.0 | 0.00 | 0.00 | 0.00 | 49 | 1019.1 |
| 20260509103537 | 70 | 153 | 6.0 | 8.0 | 0.00 | 0.00 | 0.00 | 48 | 1019.3 |
| 20260509103036 | 70 | 128 | 3.0 | 7.0 | 0.00 | 0.00 | 0.00 | 49 | 1019.3 |
| 20260509102536 | 70 | 117 | 5.0 | 6.0 | 0.00 | 0.00 | 0.00 | 45 | 1019.2 |
| 20260509102035 | 69 | 135 | 9.0 | 12.0 | 0.00 | 0.00 | 0.00 | 44 | 1019.4 |
| 20260509101537 | 70 | 152 | 6.0 | 9.0 | 0.00 | 0.00 | 0.00 | 42 | 1019.3 |
| 20260509101036 | 70 | 135 | 7.0 | 9.0 | 0.00 | 0.00 | 0.00 | 41 | 1019.4 |
| 20260509100535 | 72 | 158 | 5.0 | 6.0 | 0.00 | 0.00 | 0.00 | 40 | 1019.4 |
| 20260509100036 | 71 | 158 | 7.0 | 8.0 | 0.00 | 0.00 | 0.00 | 41 | 1019.4 |
| 20260509095536 | 71 | 130 | 7.0 | 8.0 | 0.00 | 0.00 | 0.00 | 41 | 1019.4 |
| 20260509095035 | 72 | 123 | 3.0 | 6.0 | 0.00 | 0.00 | 0.00 | 41 | 1019.3 |
| 20260509094536 | 71 | 121 | 3.0 | 6.0 | 0.00 | 0.00 | 0.00 | 43 | 1019.5 |
| 20260509094036 | 70 | 112 | 3.0 | 6.0 | 0.00 | 0.00 | 0.00 | 42 | 1019.5 |
| 20260509093535 | 70 | 125 | 6.0 | 8.0 | 0.00 | 0.00 | 0.00 | 44 | 1019.5 |
| 20260509093037 | 69 | 135 | 8.0 | 10.0 | 0.00 | 0.00 | 0.00 | 44 | 1019.6 |
| 20260509092537 | 70 | 135 | 7.0 | 9.0 | 0.00 | 0.00 | 0.00 | 44 | 1019.7 |
| 20260509092036 | 71 | 135 | 6.0 | 7.0 | 0.00 | 0.00 | 0.00 | 43 | 1019.7 |
| 20260509091535 | 71 | 151 | 2.0 | 3.0 | 0.00 | 0.00 | 0.00 | 46 | 1019.9 |
| 20260509091037 | 70 | 123 | 5.0 | 6.0 | 0.00 | 0.00 | 0.00 | 44 | 1019.9 |
| 20260509090536 | 70 | 138 | 6.0 | 8.0 | 0.00 | 0.00 | 0.00 | 44 | 1020.1 |
| 20260509090036 | 70 | 158 | 5.0 | 6.0 | 0.00 | 0.00 | 0.00 | 44 | 1020.0 |
| 20260509085537 | 70 | 135 | 3.0 | 3.0 | 0.00 | 0.00 | 0.00 | 43 | 1020.1 |
| 20260509085036 | 71 | 135 | 5.0 | 6.0 | 0.00 | 0.00 | 0.00 | 43 | 1020.0 |
| 20260509084535 | 70 | 153 | 2.0 | 3.0 | 0.00 | 0.00 | 0.00 | 42 | 1020.1 |
| 20260509084037 | 70 | 126 | 2.0 | 3.0 | 0.00 | 0.00 | 0.00 | 42 | 1020.0 |
| 20260509083536 | 70 | 118 | 3.0 | 6.0 | 0.00 | 0.00 | 0.00 | 42 | 1019.9 |
| 20260509083037 | 70 | 112 | 1.0 | 2.0 | 0.00 | 0.01 | 0.00 | 44 | 1020.0 |
| 20260509082536 | 68 | 153 | 3.0 | 3.0 | 0.00 | 0.01 | 0.00 | 43 | 1020.0 |
| 20260509082035 | 69 | 112 | 3.0 | 3.0 | 0.00 | 0.01 | 0.00 | 42 | 1020.1 |
| 20260509081537 | 69 | 135 | 2.0 | 3.0 | 0.00 | 0.01 | 0.00 | 43 | 1020.1 |
| 20260509081036 | 68 | 147 | 1.0 | 1.0 | 0.00 | 0.01 | 0.00 | 46 | 1020.2 |
| 20260509080536 | 68 | 146 | 2.0 | 5.0 | 0.00 | 0.02 | 0.00 | 44 | 1020.3 |
| 20260509080035 | 71 | 135 | 2.0 | 3.0 | 0.00 | 0.02 | 0.00 | 42 | 1020.4 |
| 20260509075536 | 71 | 140 | 1.0 | 2.0 | 0.00 | 0.02 | 0.00 | 44 | 1020.5 |
| 20260509075036 | 69 | 146 | 1.0 | 2.0 | 0.00 | 0.02 | 0.00 | 45 | 1020.4 |
| 20260509074535 | 69 | 140 | 1.0 | 3.0 | 0.00 | 0.02 | 0.00 | 46 | 1020.5 |
| 20260509074037 | 68 | 138 | 1.0 | 3.0 | 0.00 | 0.02 | 0.00 | 45 | 1020.5 |
| 20260509073535 | 68 | 158 | 0.0 | 1.0 | 0.00 | 0.02 | 0.00 | 50 | 1020.5 |
| 20260509073037 | 67 | 131 | 2.0 | 3.0 | 0.00 | 0.02 | 0.00 | 51 | 1020.5 |
| 20260509072535 | 65 | 149 | 1.0 | 2.0 | 0.00 | 0.02 | 0.00 | 51 | 1020.6 |
| 20260509072037 | 66 | 144 | 2.0 | 3.0 | 0.00 | 0.02 | 0.00 | 50 | 1020.4 |
| 20260509071537 | 67 | 158 | 2.0 | 3.0 | 0.00 | 0.02 | 0.00 | 50 | 1020.4 |
| 20260509071036 | 68 | 135 | 1.0 | 2.0 | 0.00 | 0.02 | 0.00 | 51 | 1020.3 |
| 20260509070536 | 67 | 136 | 1.0 | 2.0 | 0.00 | 0.02 | 0.00 | 51 | 1020.3 |
| 20260509070035 | 66 | 158 | 0.0 | 1.0 | 0.00 | 0.02 | 0.00 | 52 | 1020.3 |
| 20260509065536 | 65 | 135 | 1.0 | 2.0 | 0.00 | 0.02 | 0.00 | 53 | 1020.3 |
| 20260509065036 | 64 | 115 | 2.0 | 3.0 | 0.00 | 0.02 | 0.00 | 53 | 1020.5 |
| 20260509064535 | 65 | 126 | 2.0 | 3.0 | 0.00 | 0.02 | 0.00 | 53 | 1020.5 |
| 20260509064037 | 66 | 158 | 1.0 | 3.0 | 0.00 | 0.02 | 0.00 | 50 | 1020.6 |
| 20260509063536 | 68 | 118 | 0.0 | 3.0 | 0.00 | 0.02 | 0.00 | 51 | 1020.6 |
| 20260509063036 | 68 | 147 | 1.0 | 1.0 | 0.00 | 0.02 | 0.00 | 51 | 1020.7 |
| 20260509062536 | 68 | 135 | 1.0 | 2.0 | 0.00 | 0.02 | 0.00 | 50 | 1020.6 |
| 20260509062035 | 67 | 135 | 0.0 | 1.0 | 0.00 | 0.04 | 0.00 | 51 | 1020.6 |
| 20260509061537 | 65 | 135 | 0.0 | 1.0 | 0.00 | 0.04 | 0.00 | 57 | 1020.7 |
| 20260509060808 | 63 | 135 | 1.0 | 2.0 | 0.00 | 0.05 | 0.00 | 58 | 1020.7 |
| 20260509060309 | 58 | 135 | 1.0 | 2.0 | 0.00 | 0.05 | 0.00 | 65 | 1020.7 |
| 20260509055809 | 58 | 135 | 1.0 | 1.0 | 0.00 | 0.05 | 0.00 | 67 | 1020.7 |
| 20260509055308 | 56 | 135 | 3.0 | 5.0 | 0.00 | 0.05 | 0.00 | 78 | 1020.7 |
| 20260509054810 | 53 | 146 | 1.0 | 2.0 | 0.00 | 0.05 | 0.00 | 82 | 1020.7 |
| 20260509054309 | 52 | 135 | 0.0 | 0.0 | 0.00 | 0.05 | 0.00 | 82 | 1020.7 |
| 20260509053809 | 51 | 158 | 2.0 | 3.0 | 0.00 | 0.05 | 0.00 | 82 | 1020.7 |
| 20260509053308 | 51 | 135 | 2.0 | 3.0 | 0.00 | 0.05 | 0.00 | 81 | 1020.6 |
| 20260509052809 | 51 | 147 | 3.0 | 3.0 | 0.00 | 0.05 | 0.00 | 80 | 1020.6 |
| 20260509052309 | 51 | 135 | 3.0 | 5.0 | 0.00 | 0.05 | 0.00 | 80 | 1020.6 |
| 20260509051809 | 51 | 135 | 3.0 | 3.0 | 0.00 | 0.05 | 0.00 | 80 | 1020.6 |
| 20260509051310 | 51 | 149 | 1.0 | 2.0 | 0.00 | 0.05 | 0.00 | 80 | 1020.5 |
| 20260509050809 | 50 | 158 | 0.0 | 3.0 | 0.00 | 0.05 | 0.00 | 81 | 1020.5 |
| 20260509050308 | 50 | 135 | 0.0 | 1.0 | 0.00 | 0.05 | 0.00 | 80 | 1020.6 |
| 20260509045808 | 50 | 135 | 1.0 | 1.0 | 0.00 | 0.05 | 0.00 | 80 | 1020.5 |
| 20260509045042 | 50 | 155 | 1.0 | 2.0 | 0.00 | 0.05 | 0.00 | 80 | 1020.4 |
| 20260509044542 | 50 | 148 | 2.0 | 3.0 | 0.00 | 0.05 | 0.00 | 79 | 1020.4 |
| 20260509044041 | 50 | 145 | 3.0 | 5.0 | 0.00 | 0.05 | 0.00 | 79 | 1020.4 |
| 20260509043543 | 50 | 155 | 0.0 | 3.0 | 0.00 | 0.05 | 0.00 | 79 | 1020.3 |
| 20260509043042 | 50 | 135 | 1.0 | 3.0 | 0.00 | 0.05 | 0.00 | 79 | 1020.4 |
| 20260509042541 | 50 | 135 | 2.0 | 3.0 | 0.00 | 0.05 | 0.00 | 79 | 1020.4 |
| 20260509042041 | 50 | 158 | 0.0 | 0.0 | 0.00 | 0.05 | 0.00 | 78 | 1020.4 |
| 20260509041542 | 50 | 158 | 3.0 | 5.0 | 0.00 | 0.05 | 0.00 | 77 | 1020.4 |
| 20260509041042 | 50 | 140 | 1.0 | 2.0 | 0.00 | 0.05 | 0.00 | 77 | 1020.3 |
| 20260509040542 | 50 | 135 | 1.0 | 3.0 | 0.00 | 0.05 | 0.00 | 76 | 1020.3 |
| 20260509035536 | 51 | 136 | 1.0 | 2.0 | 0.00 | 0.05 | 0.00 | 74 | 1020.3 |
| 20260509035037 | 52 | 135 | 0.0 | 1.0 | 0.00 | 0.05 | 0.00 | 73 | 1020.4 |
| 20260509034536 | 53 | 135 | 1.0 | 6.0 | 0.00 | 0.05 | 0.00 | 72 | 1020.4 |
| 20260509034036 | 52 | 135 | 3.0 | 6.0 | 0.00 | 0.06 | 0.00 | 73 | 1020.5 |
| 20260509033537 | 52 | 135 | 3.0 | 6.0 | 0.00 | 0.06 | 0.00 | 75 | 1020.5 |
| 20260509033037 | 52 | 135 | 2.0 | 3.0 | 0.00 | 0.06 | 0.00 | 76 | 1020.5 |
| 20260509032537 | 51 | 135 | 3.0 | 6.0 | 0.00 | 0.06 | 0.00 | 78 | 1020.5 |
| 20260509032036 | 51 | 135 | 3.0 | 6.0 | 0.00 | 0.06 | 0.00 | 80 | 1020.4 |
| 20260509031538 | 51 | 135 | 3.0 | 6.0 | 0.00 | 0.06 | 0.00 | 83 | 1020.5 |
| 20260509031037 | 50 | 135 | 5.0 | 8.0 | 0.00 | 0.06 | 0.00 | 87 | 1020.5 |
| 20260509030536 | 49 | 135 | 2.0 | 3.0 | 0.00 | 0.06 | 0.00 | 89 | 1020.4 |
| 20260509030036 | 48 | 135 | 2.0 | 3.0 | 0.00 | 0.06 | 0.00 | 89 | 1020.4 |
| 20260509025537 | 48 | 135 | 1.0 | 2.0 | 0.00 | 0.06 | 0.00 | 89 | 1020.3 |
| 20260509025037 | 48 | 158 | 2.0 | 3.0 | 0.00 | 0.06 | 0.00 | 88 | 1020.3 |
| 20260509024536 | 48 | 158 | 1.0 | 3.0 | 0.00 | 0.06 | 0.00 | 89 | 1020.4 |
| 20260509024037 | 48 | 135 | 0.0 | 0.0 | 0.00 | 0.06 | 0.00 | 89 | 1020.4 |
| 20260509023537 | 49 | 158 | 2.0 | 3.0 | 0.00 | 0.06 | 0.00 | 90 | 1020.3 |
| 20260509023036 | 48 | 135 | 0.0 | 1.0 | 0.00 | 0.06 | 0.00 | 90 | 1020.3 |
| 20260509022538 | 48 | 141 | 1.0 | 1.0 | 0.00 | 0.06 | 0.00 | 90 | 1020.4 |
| 20260509022037 | 48 | 158 | 2.0 | 3.0 | 0.00 | 0.06 | 0.00 | 89 | 1020.4 |
| 20260509021536 | 49 | 158 | 3.0 | 3.0 | 0.00 | 0.06 | 0.00 | 89 | 1020.4 |
| 20260509021036 | 48 | 158 | 0.0 | 3.0 | 0.00 | 0.06 | 0.00 | 89 | 1020.4 |
| 20260509020537 | 49 | 158 | 3.0 | 6.0 | 0.00 | 0.06 | 0.00 | 89 | 1020.4 |
| 20260509020037 | 49 | 158 | 3.0 | 3.0 | 0.00 | 0.06 | 0.00 | 89 | 1020.4 |
| 20260509015536 | 49 | 158 | 0.0 | 1.0 | 0.00 | 0.06 | 0.00 | 89 | 1020.4 |
| 20260509015037 | 49 | 158 | 1.0 | 2.0 | 0.00 | 0.06 | 0.00 | 89 | 1020.3 |
| 20260509014536 | 49 | 135 | 0.0 | 1.0 | 0.00 | 0.06 | 0.00 | 90 | 1020.2 |
| 20260509014038 | 49 | 158 | 5.0 | 6.0 | 0.00 | 0.06 | 0.00 | 90 | 1020.3 |
| 20260509013539 | 49 | 158 | 3.0 | 6.0 | 0.00 | 0.06 | 0.00 | 88 | 1020.2 |
| 20260509013038 | 49 | 158 | 3.0 | 5.0 | 0.00 | 0.06 | 0.00 | 88 | 1020.1 |
| 20260509012538 | 50 | 145 | 1.0 | 2.0 | 0.00 | 0.06 | 0.00 | 88 | 1020.3 |
| 20260509012039 | 50 | 135 | 0.0 | 1.0 | 0.00 | 0.06 | 0.00 | 87 | 1020.1 |
| 20260509011539 | 50 | 135 | 1.0 | 1.0 | 0.00 | 0.06 | 0.00 | 87 | 1020.1 |
| 20260509011038 | 51 | 158 | 1.0 | 3.0 | 0.00 | 0.06 | 0.00 | 87 | 1020.0 |
| 20260509010538 | 50 | 158 | 3.0 | 3.0 | 0.00 | 0.06 | 0.00 | 86 | 1020.1 |
| 20260509010040 | 50 | 158 | 1.0 | 2.0 | 0.00 | 0.06 | 0.00 | 85 | 1020.1 |
| 20260509005539 | 50 | 135 | 1.0 | 2.0 | 0.00 | 0.06 | 0.00 | 85 | 1020.3 |
| 20260509005038 | 51 | 135 | 0.0 | 1.0 | 0.00 | 0.06 | 0.00 | 85 | 1020.2 |
| 20260509004538 | 51 | 135 | 2.0 | 3.0 | 0.00 | 0.06 | 0.00 | 85 | 1020.2 |
| 20260509004039 | 51 | 158 | 2.0 | 3.0 | 0.00 | 0.06 | 0.00 | 86 | 1020.1 |
| 20260509003540 | 51 | 120 | 1.0 | 1.0 | 0.00 | 0.06 | 0.00 | 85 | 1020.1 |
| 20260509003039 | 51 | 158 | 1.0 | 3.0 | 0.00 | 0.06 | 0.00 | 85 | 1020.2 |
| 20260509002539 | 51 | 158 | 2.0 | 3.0 | 0.00 | 0.06 | 0.00 | 84 | 1020.2 |
| 20260509002038 | 51 | 158 | 1.0 | 3.0 | 0.00 | 0.06 | 0.00 | 84 | 1020.2 |
| 20260509001538 | 52 | 158 | 3.0 | 5.0 | 0.00 | 0.06 | 0.00 | 82 | 1020.1 |
| 20260509001038 | 52 | 139 | 0.0 | 1.0 | 0.00 | 0.06 | 0.00 | 81 | 1020.0 |
| 20260509000539 | 53 | 158 | 2.0 | 3.0 | 0.00 | 0.06 | 0.00 | 81 | 1020.0 |
| 20260509000039 | 53 | 158 | 2.0 | 3.0 | 0.00 | 0.06 | 0.00 | 80 | 1020.1 |
| 20260508235538 | 53 | 135 | 3.0 | 6.0 | 0.00 | 0.06 | 0.00 | 80 | 1020.2 |
| 20260508235039 | 53 | 145 | 1.0 | 2.0 | 0.00 | 0.06 | 0.00 | 80 | 1020.1 |
| 20260508234538 | 54 | 135 | 2.0 | 3.0 | 0.00 | 0.06 | 0.00 | 78 | 1020.3 |
| 20260508234039 | 54 | 135 | 0.0 | 1.0 | 0.00 | 0.06 | 0.00 | 74 | 1020.3 |
| 20260508233539 | 55 | 135 | 1.0 | 3.0 | 0.00 | 0.06 | 0.00 | 75 | 1020.3 |
| 20260508233038 | 54 | 137 | 2.0 | 6.0 | 0.00 | 0.06 | 0.00 | 80 | 1020.3 |
| 20260508232538 | 53 | 158 | 3.0 | 6.0 | 0.00 | 0.06 | 0.00 | 83 | 1020.4 |
| 20260508232039 | 53 | 150 | 3.0 | 5.0 | 0.00 | 0.06 | 0.00 | 85 | 1020.3 |
| 20260508231538 | 53 | 154 | 3.0 | 6.0 | 0.00 | 0.06 | 0.00 | 85 | 1020.4 |
| 20260508231038 | 53 | 135 | 1.0 | 3.0 | 0.00 | 0.06 | 0.00 | 84 | 1020.4 |
| 20260508230539 | 53 | 151 | 2.0 | 5.0 | 0.00 | 0.06 | 0.00 | 83 | 1020.3 |
| 20260508230038 | 54 | 135 | 0.0 | 0.0 | 0.00 | 0.06 | 0.00 | 82 | 1020.3 |
| 20260508225539 | 54 | 135 | 0.0 | 1.0 | 0.00 | 0.06 | 0.00 | 82 | 1020.3 |
| 20260508225039 | 54 | 135 | 0.0 | 1.0 | 0.00 | 0.06 | 0.00 | 81 | 1020.3 |
| 20260508224538 | 55 | 135 | 1.0 | 2.0 | 0.00 | 0.06 | 0.00 | 77 | 1020.2 |
| 20260508224038 | 55 | 135 | 2.0 | 3.0 | 0.00 | 0.06 | 0.00 | 75 | 1020.2 |
| 20260508223539 | 56 | 135 | 0.0 | 1.0 | 0.00 | 0.06 | 0.00 | 74 | 1020.4 |
| 20260508223039 | 56 | 135 | 1.0 | 1.0 | 0.00 | 0.06 | 0.00 | 73 | 1020.4 |
| 20260508222538 | 56 | 150 | 0.0 | 1.0 | 0.00 | 0.06 | 0.00 | 74 | 1020.5 |
| 20260508222039 | 56 | 135 | 2.0 | 5.0 | 0.00 | 0.06 | 0.00 | 76 | 1020.4 |
| 20260508221539 | 55 | 147 | 2.0 | 5.0 | 0.00 | 0.06 | 0.00 | 80 | 1020.5 |
| 20260508221038 | 54 | 135 | 3.0 | 6.0 | 0.00 | 0.06 | 0.00 | 85 | 1020.4 |
| 20260508220538 | 53 | 137 | 1.0 | 3.0 | 0.00 | 0.06 | 0.00 | 87 | 1020.5 |
| 20260508220039 | 53 | 135 | 2.0 | 3.0 | 0.00 | 0.06 | 0.00 | 88 | 1020.5 |
| 20260508215539 | 53 | 158 | 0.0 | 1.0 | 0.00 | 0.06 | 0.06 | 88 | 1020.5 |
| 20260508215038 | 53 | 158 | 0.0 | 0.0 | 0.00 | 0.06 | 0.06 | 87 | 1020.4 |
| 20260508214538 | 53 | 135 | 0.0 | 1.0 | 0.00 | 0.06 | 0.06 | 88 | 1020.3 |
| 20260508214039 | 53 | 158 | 3.0 | 5.0 | 0.00 | 0.06 | 0.06 | 88 | 1020.3 |
| 20260508213539 | 53 | 158 | 1.0 | 2.0 | 0.00 | 0.06 | 0.06 | 88 | 1020.2 |
| 20260508213039 | 53 | 135 | 0.0 | 0.0 | 0.00 | 0.06 | 0.06 | 88 | 1020.3 |
| 20260508212538 | 53 | 135 | 0.0 | 0.0 | 0.00 | 0.06 | 0.06 | 88 | 1020.2 |
| 20260508212038 | 53 | 158 | 0.0 | 0.0 | 0.00 | 0.06 | 0.06 | 88 | 1020.2 |
| 20260508211539 | 53 | 153 | 3.0 | 5.0 | 0.00 | 0.06 | 0.06 | 88 | 1020.2 |
| 20260508211039 | 53 | 157 | 1.0 | 3.0 | 0.00 | 0.06 | 0.06 | 87 | 1020.3 |
| 20260508210538 | 54 | 158 | 2.0 | 3.0 | 0.00 | 0.06 | 0.06 | 86 | 1020.3 |
| 20260508210038 | 54 | 135 | 1.0 | 2.0 | 0.00 | 0.06 | 0.06 | 84 | 1020.2 |
| 20260508205539 | 54 | 135 | 0.0 | 1.0 | 0.00 | 0.06 | 0.06 | 84 | 1020.2 |
| 20260508205039 | 55 | 135 | 0.0 | 0.0 | 0.00 | 0.06 | 0.06 | 81 | 1020.1 |
| 20260508204538 | 55 | 135 | 0.0 | 1.0 | 0.00 | 0.06 | 0.06 | 81 | 1020.1 |
| 20260508204039 | 55 | 135 | 2.0 | 3.0 | 0.00 | 0.06 | 0.06 | 81 | 1020.1 |
| 20260508203539 | 55 | 158 | 1.0 | 2.0 | 0.00 | 0.06 | 0.06 | 81 | 1020.1 |
| 20260508203038 | 56 | 135 | 0.0 | 0.0 | 0.00 | 0.06 | 0.06 | 81 | 1020.0 |
| 20260508202538 | 55 | 135 | 0.0 | 1.0 | 0.00 | 0.06 | 0.06 | 81 | 1020.0 |
| 20260508202039 | 55 | 135 | 1.0 | 1.0 | 0.00 | 0.06 | 0.06 | 81 | 1020.0 |
| 20260508201539 | 56 | 158 | 2.0 | 3.0 | 0.00 | 0.06 | 0.06 | 81 | 1020.1 |
| 20260508201038 | 56 | 158 | 0.0 | 0.0 | 0.00 | 0.06 | 0.06 | 81 | 1020.0 |
| 20260508200539 | 56 | 158 | 2.0 | 3.0 | 0.00 | 0.06 | 0.06 | 80 | 1019.9 |
| 20260508200038 | 56 | 158 | 1.0 | 2.0 | 0.00 | 0.06 | 0.06 | 80 | 1020.0 |
| 20260508195537 | 56 | 135 | 0.0 | 0.0 | 0.00 | 0.06 | 0.06 | 80 | 1020.0 |
| 20260508195039 | 56 | 135 | 0.0 | 1.0 | 0.00 | 0.06 | 0.06 | 80 | 1019.8 |
| 20260508194539 | 56 | 135 | 0.0 | 0.0 | 0.00 | 0.06 | 0.06 | 79 | 1019.9 |
| 20260508194039 | 56 | 158 | 0.0 | 0.0 | 0.00 | 0.06 | 0.06 | 79 | 1019.8 |
| 20260508193538 | 57 | 158 | 1.0 | 3.0 | 0.00 | 0.06 | 0.06 | 80 | 1019.6 |
| 20260508193038 | 56 | 158 | 3.0 | 3.0 | 0.00 | 0.06 | 0.06 | 81 | 1019.6 |
| 20260508192539 | 56 | 135 | 1.0 | 3.0 | 0.00 | 0.06 | 0.06 | 81 | 1019.5 |
| 20260508192038 | 56 | 135 | 1.0 | 1.0 | 0.00 | 0.06 | 0.06 | 80 | 1019.5 |
| 20260508191538 | 57 | 158 | 1.0 | 3.0 | 0.00 | 0.06 | 0.06 | 80 | 1019.4 |
| 20260508191039 | 57 | 137 | 0.0 | 0.0 | 0.00 | 0.06 | 0.06 | 80 | 1019.3 |
| 20260508190539 | 57 | 135 | 0.0 | 0.0 | 0.00 | 0.06 | 0.06 | 80 | 1019.4 |
| 20260508190038 | 57 | 135 | 0.0 | 0.0 | 0.00 | 0.06 | 0.06 | 79 | 1019.2 |
| 20260508185538 | 57 | 135 | 0.0 | 1.0 | 0.00 | 0.06 | 0.06 | 80 | 1019.1 |
| 20260508185039 | 58 | 135 | 1.0 | 2.0 | 0.00 | 0.06 | 0.06 | 79 | 1019.1 |
| 20260508184538 | 58 | 155 | 2.0 | 3.0 | 0.00 | 0.06 | 0.06 | 77 | 1019.1 |
| 20260508184038 | 59 | 158 | 0.0 | 1.0 | 0.00 | 0.06 | 0.06 | 74 | 1019.0 |
| 20260508183539 | 59 | 158 | 0.0 | 0.0 | 0.00 | 0.06 | 0.06 | 74 | 1018.9 |
| 20260508183039 | 59 | 158 | 0.0 | 0.0 | 0.00 | 0.06 | 0.06 | 73 | 1019.0 |
| 20260508182538 | 60 | 158 | 1.0 | 1.0 | 0.00 | 0.06 | 0.06 | 73 | 1018.9 |
| 20260508182037 | 60 | 158 | 0.0 | 1.0 | 0.00 | 0.06 | 0.06 | 73 | 1018.9 |
| 20260508181539 | 60 | 158 | 1.0 | 1.0 | 0.00 | 0.06 | 0.06 | 72 | 1018.8 |
| 20260508181038 | 60 | 158 | 1.0 | 1.0 | 0.00 | 0.06 | 0.06 | 72 | 1018.8 |
| 20260508180539 | 61 | 158 | 2.0 | 3.0 | 0.00 | 0.06 | 0.06 | 71 | 1018.9 |
| 20260508180038 | 62 | 158 | 1.0 | 3.0 | 0.00 | 0.06 | 0.06 | 70 | 1018.8 |
| 20260508175538 | 62 | 158 | 1.0 | 3.0 | 0.00 | 0.06 | 0.06 | 69 | 1018.8 |
| 20260508175039 | 63 | 158 | 0.0 | 0.0 | 0.00 | 0.06 | 0.06 | 67 | 1018.8 |
| 20260508174538 | 63 | 158 | 0.0 | 0.0 | 0.00 | 0.06 | 0.06 | 66 | 1018.7 |
| 20260508174039 | 64 | 158 | 0.0 | 0.0 | 0.00 | 0.06 | 0.06 | 61 | 1018.7 |
| 20260508173538 | 65 | 158 | 0.0 | 0.0 | 0.00 | 0.06 | 0.06 | 58 | 1018.6 |
| 20260508173037 | 65 | 158 | 0.0 | 0.0 | 0.00 | 0.06 | 0.06 | 53 | 1018.4 |
| 20260508172539 | 65 | 140 | 0.0 | 1.0 | 0.00 | 0.06 | 0.06 | 51 | 1018.5 |
| 20260508172038 | 66 | 135 | 2.0 | 3.0 | 0.00 | 0.06 | 0.06 | 50 | 1018.4 |
| 20260508171537 | 67 | 128 | 2.0 | 3.0 | 0.00 | 0.06 | 0.06 | 50 | 1018.4 |
| 20260508171039 | 67 | 135 | 2.0 | 3.0 | 0.00 | 0.06 | 0.06 | 50 | 1018.3 |
| 20260508170539 | 67 | 158 | 2.0 | 3.0 | 0.00 | 0.06 | 0.06 | 51 | 1018.3 |
| 20260508170038 | 67 | 135 | 1.0 | 3.0 | 0.00 | 0.06 | 0.06 | 50 | 1018.3 |
| 20260508165539 | 67 | 112 | 3.0 | 5.0 | 0.00 | 0.06 | 0.06 | 49 | 1018.3 |
| 20260508165038 | 68 | 135 | 2.0 | 3.0 | 0.00 | 0.06 | 0.06 | 48 | 1018.3 |
| 20260508164538 | 68 | 141 | 1.0 | 3.0 | 0.00 | 0.06 | 0.06 | 46 | 1018.2 |
| 20260508164037 | 69 | 116 | 2.0 | 3.0 | 0.00 | 0.06 | 0.06 | 45 | 1018.3 |
| 20260508163539 | 69 | 126 | 2.0 | 3.0 | 0.00 | 0.06 | 0.06 | 45 | 1018.2 |
| 20260508163038 | 69 | 143 | 1.0 | 3.0 | 0.00 | 0.06 | 0.06 | 44 | 1018.1 |
| 20260508162538 | 70 | 135 | 2.0 | 3.0 | 0.00 | 0.06 | 0.06 | 45 | 1018.1 |
| 20260508162039 | 71 | 144 | 2.0 | 3.0 | 0.00 | 0.06 | 0.06 | 43 | 1018.2 |
| 20260508161538 | 71 | 135 | 1.0 | 3.0 | 0.00 | 0.06 | 0.06 | 43 | 1018.1 |
| 20260508161038 | 70 | 135 | 1.0 | 2.0 | 0.00 | 0.06 | 0.06 | 44 | 1018.2 |
| 20260508160539 | 70 | 157 | 3.0 | 3.0 | 0.00 | 0.06 | 0.06 | 43 | 1018.2 |
| 20260508155535 | 70 | 135 | 1.0 | 2.0 | 0.00 | 0.06 | 0.06 | 45 | 1018.4 |
| 20260508155035 | 68 | 152 | 1.0 | 3.0 | 0.00 | 0.06 | 0.06 | 48 | 1018.4 |
| 20260508154536 | 68 | 158 | 2.0 | 3.0 | 0.00 | 0.06 | 0.06 | 48 | 1018.4 |
| 20260508154035 | 68 | 147 | 2.0 | 3.0 | 0.00 | 0.06 | 0.06 | 49 | 1018.5 |
| 20260508153535 | 67 | 135 | 1.0 | 2.0 | 0.00 | 0.06 | 0.06 | 48 | 1018.5 |
| 20260508153034 | 66 | 158 | 2.0 | 3.0 | 0.00 | 0.06 | 0.06 | 51 | 1018.5 |